Volver al catálogo

STARLINK-37844

ActivoComunicacionesVLEO
NORAD 100028·PAYLOAD·🇺🇸 United States

Lanzado Jul 14, 2026 desde Cape Canaveral Space Force Station

Loading…

Próximos Pases (próximas 24 horas)

TLE

ActualizadoSource: Space-Track

Época: Sep 13, 2026, 15:17 UTC

1 A0028U 26161A   26256.63695420  .00011058  00000-0  33833-3 0  9990
2 A0028  53.1619  30.0355 0001368  77.0371 283.0784 15.34362535 10680

Sigue STARLINK-37844 en tiempo real con AllMySat

Download on the App Store